ATLAS 5 CENTAUR DEB, 44684

Orbit data source: Space-Track

ATLAS 5 CENTAUR DEB, 44684 is space debris in HEO originally from a launch on Wed, 17 Oct 2018 UTC launched from the Air Force Eastern Test Range (AFETR). Debris objects in space refer to the collection of defunct objects orbiting the Earth. Examples of debris include non-operational satellites, rocket bodies, and fragments generated from explosions, collisions, or faulty payload assembly.

Loading next visibility...
Identifier
44684, 2018-079AW
Orbit
HEO
Country
Flag of USUS
Related business
Flag of USUnited Launch Alliance/Lockheed Martin (US)
Manufacturer
ULA Decatur
Mission
Spacecraft
Bus & Motor
Unknown
Mass
Unknown
Launch date (UTC)
2018-10-17 (8 years ago)
Launch vehicle
Unknown
Launch site
Air Force Eastern Test Range (AFETR)
Object type
Payload
Rocket body
Debris
Shape & HBR
Unknown shape, 1.1 m
Radar Cross Section
Medium (>0.1 m² and <1 m²)

Expand to show TLE details & history
Last TLE update: 3 days ago

TLE from 3 days ago
0 ATLAS 5 CENTAUR DEB
1 44684U 18079AW  26170.85393152 -.00000112  00000-0  00000+0 0  9997
2 44684  13.3055  33.8449 4659252 319.6812  13.6992  1.83133468 47119
Epoch: 2026-06-19T20:29Z
TLE epoch observation values (Epoch: 2026-06-19T20:29:39.683Z)
Latitude
0.00014°
Longitude
178.33678°
Altitude
9,954.163 km
Speed
5.89 km/s
True Right ascension
02h 15m 18s
True Declination
0° 00' 01"
Sunlit
Object was in daylight at epoch
Visualization orbit readout
Latitude
Unknown
Longitude
Unknown
Altitude
Unknown
Speed
Unknown
Apparent Right ascension
Unknown
Apparent Declination
Unknown
Sunlit
N/A
Visualization observer readout
Local Sidereal Time
21:35:21
Azimuth
Unknown
Elevation
Unknown
Doppler factor
Unknown
Orbital elements
Apogee altitude
34,993.308 km
Perigee altitude
8,694.56 km
Semi-major axis
28,222.071 km
Eccentricity
0.46593
Inclination
13.3055°
RAAN
33.8449°
Arg. of periapsis
319.6812°
True anomaly
40.28586°
Mean anomaly
13.6992°
Eccentric anomaly
24.9675°
Mean motion
0.45778 °/min
Orbital period
786.4 mins
BSTAR
0
Loading maneuver chart data...
Computing Atmospheric mass density...

Documentation

Showing up to 5 results
|